CAPE
131 77 132 122 68 41 26 38 26 8 31 0 59 48 18 196 255 228 425 516 565 906 1338 1400 1552 2035 2188 1701 1603 1746 1764 1810
182 64 33 63 60 15 3 0 0 0 0 2 73 94 48 62 173 230 440 484 556 1062 1277 1468 1442 1655 2004 2246 2077 2087 2114 2160
2 4 30 41 84 42 1 7 0 5 13 20 54 84 77 65 129 270 435 535 585 943 1289 1421 1482 1554 1812 2096 2269 2250 2496 2203
7 105 58 47 81 11 15 23 28 24 22 49 66 67 64 64 144 292 506 585 699 865 1217 1422 1673 1743 1968 1984 2004 2093 2106 2254
16 127 45 28 2 18 15 34 14 35 44 50 68 71 48 95 148 299 517 655 782 978 1131 1267 1576 1910 2113 2190 2140 2111 2114 2252
4 0 21 23 16 14 16 20 0 35 39 9 37 32 42 90 163 323 526 691 829 926 1074 1134 1499 2102 2200 2198 2373 2371 2352 2290
0 3 12 179 113 59 62 38 4 0 13 6 9 11 46 56 123 323 482 725 781 866 1014 1233 1958 2012 2008 2117 2270 2218 2159 1904
0 0 25 108 135 33 25 23 4 9 0 28 27 43 40 60 140 357 474 642 1006 1634 1911 2384 2227 2071 2058 2220 2286 2207 2056 1896
0 0 7 25 41 30 3 4 15 2 6 16 38 2 32 49 50 155 630 1616 2140 2282 2536 2506 2230 2214 2310 2261 2179 2077 2047 2120
0 0 2 4 13 19 0 0 0 3 0 12 11 6 8 17 50 618 1559 1932 2376 2661 2783 2436 2283 2389 2436 2351 2338 2408 2348 1981
0 0 0 0 0 0 0 0 3 1 1 0 0 3 0 0 336 1351 1725 2135 2562 2826 2582 2456 2401 2455 2430 2434 2423 1949 875 92
0 0 0 0 0 0 0 0 0 1 0 0 1 1 14 14 1006 1507 2039 2400 2809 2735 2530 2533 2493 2473 2404 2283 1734 672 0 0
0 0 0 0 0 9 0 2 4 11 0 14 12 54 28 296 1705 2049 2411 2790 2875 2640 2697 2618 2488 2440 2366 1802 837 0 0 0
0 0 0 0 0 3 0 8 61 44 10 22 41 48 6 1007 1844 2317 2624 2867 2810 2692 2696 2743 2582 2496 2179 1047 13 8 0 0
0 0 0 0 0 0 0 53 82 47 1 39 37 86 26 1033 2017 2378 2733 2791 2797 2728 2723 2683 2532 2306 1212 38 80 7 0 0
0 0 0 0 0 0 11 8 0 15 100 93 11 61 17 1314 2069 2386 2717 2687 2628 2597 2619 2528 2418 2083 329 163 112 0 0 0
0 0 0 0 0 0 0 0 0 1 46 5 31 0 50 1638 2084 2502 2772 2488 2418 2543 2526 2413 2318 1872 133 187 109 5 0 0
0 245 177 0 2 2 3 0 0 0 0 3 0 1 21 1742 2085 2566 2653 2345 2271 2593 2428 2280 2143 1616 138 149 66 0 0 0
303 475 560 686 0 0 0 0 9 7 52 1104 1180 67 840 1880 2275 2626 2476 2263 2274 2642 2369 2086 1742 152 114 97 15 0 0 0
CIN
-93 -43 -265 -88 -34 -17 -77 -69 -121 -175 -85 0 -101 -182 -180 -40 -67 -69 -59 -60 -55 -133 -108 -101 -106 -121 -121 -130 -140 -120 -94 -77
-27 -28 -48 -25 -12 -94 -12 0 0 0 -106 -157 -147 -162 -154 -128 -77 -8 -64 -30 -77 -128 -141 -94 -85 -125 -110 -132 -139 -125 -89 -64
-21 -32 -80 -18 -29 -19 -146 -138 0 -286 -396 -152 -192 -185 -149 -49 -59 -12 -29 -29 -39 -128 -133 -125 -132 -176 -153 -120 -108 -95 -69 -51
-13 -81 -48 -18 -31 -87 -122 -80 -246 -466 -159 -213 -188 -171 -131 -38 -46 -12 -31 -33 -37 -124 -153 -128 -149 -157 -170 -138 -136 -106 -88 -42
-5 -34 -60 -23 -9 -33 -155 -85 -76 -288 -164 -158 -157 -147 -74 -88 -77 -43 -57 -25 -39 -136 -119 -90 -146 -174 -159 -140 -128 -90 -74 -51
-3 0 -53 -64 -161 -42 -41 -14 0 -504 -154 -188 -119 -116 -66 -101 -57 -95 -49 -25 -86 -107 -91 -81 -182 -139 -124 -102 -94 -70 -50 -47
0 -16 -39 -70 -31 -66 -17 -26 -36 0 -142 -196 -123 -23 -75 -103 -70 -82 -52 -55 -54 -72 -59 -259 -239 -209 -176 -157 -93 -69 -46 -45
0 0 -47 -87 -72 -32 -73 -91 -76 -88 0 -119 -90 -58 -73 -53 -53 -55 -41 -59 -248 -255 -226 -211 -225 -179 -133 -114 -68 -40 -17 -6
0 0 -103 -89 -95 -87 -46 -47 -45 -90 -5 -57 -106 -39 -93 -106 -90 -267 -209 -215 -230 -227 -218 -252 -202 -158 -122 -82 -44 -18 -10 -26
0 -29 -25 -35 -101 -77 -6 0 -3 -53 -25 -72 -115 -105 -73 -71 -269 -225 -213 -223 -216 -246 -248 -249 -166 -124 -108 -66 -54 -34 -26 -26
0 0 0 0 0 0 0 -9 -170 -21 -42 0 0 -29 0 0 -263 -232 -254 -296 -276 -325 -250 -204 -152 -125 -106 -67 -50 -46 -140 -341
0 0 0 0 0 0 0 0 0 -45 0 0 -44 -122 -291 -196 -203 -241 -280 -296 -298 -306 -273 -206 -168 -127 -97 -78 -89 -221 0 0
0 0 0 0 0 -113 0 -56 -65 -121 -18 -108 -208 -167 -242 -347 -222 -275 -293 -319 -314 -294 -229 -198 -168 -136 -105 -113 -238 0 0 0
0 0 0 0 0 -27 0 -125 -155 -136 -75 -152 -128 -85 -148 -281 -244 -270 -298 -277 -291 -252 -206 -193 -180 -162 -145 -223 -895 -1039 0 0
0 0 0 0 0 0 0 -30 -79 -60 -93 -86 -62 -76 -82 -232 -269 -308 -324 -326 -279 -234 -226 -208 -208 -195 -215 -1077 -959 -1027 0 0
0 0 0 0 0 0 -84 -46 -6 -85 -55 -81 -94 -73 -43 -218 -303 -339 -340 -350 -285 -239 -246 -252 -232 -218 -366 -890 -900 -183 0 0
0 0 0 0 0 0 -23 0 0 -43 -63 -32 -82 -30 -29 -255 -318 -347 -367 -366 -307 -273 -247 -268 -245 -259 -1010 -866 -908 -1054 0 0
0 -85 -101 0 -32 -71 -27 -2 0 0 -84 -159 0 -11 -108 -240 -337 -370 -388 -374 -343 -265 -234 -269 -250 -295 -1020 -945 -979 -65 0 0
-37 -49 -129 -223 0 0 0 0 -126 -56 -276 -362 -457 -465 -222 -218 -334 -383 -383 -331 -370 -298 -238 -306 -316 -940 -1071 -1047 -1072 0 0 0
Wind_Speed
21 nan 23 14 nan nan nan nan nan nan nan nan nan nan nan 14 15 12 14 18 18 23 21 20 19 19 18 16 17 18 19 19
22 nan nan nan nan nan nan nan nan nan nan nan nan nan nan nan 15 15 13 17 19 20 17 19 19 17 15 17 20 19 19 18
nan nan nan nan nan nan nan nan nan nan nan nan nan nan nan nan 16 15 14 18 22 17 18 19 17 17 17 15 15 18 19 12
nan 20 nan nan nan nan nan nan nan nan nan nan nan nan nan nan 13 15 14 16 18 15 14 14 16 15 15 13 16 18 10 7
nan 35 nan nan nan nan nan nan nan nan nan nan nan nan nan nan 11 12 14 12 14 12 12 12 13 12 12 15 14 8 6 6
nan nan nan nan nan nan nan nan nan nan nan nan nan nan nan nan 10 11 11 9 6 9 9 8 8 11 10 8 9 9 6 3
nan nan nan 51 35 nan nan nan nan nan nan nan nan nan nan nan 6 5 8 5 4 3 2 3 8 9 10 10 11 11 6 3
nan nan nan 51 26 nan nan nan nan nan nan nan nan nan nan nan 3 4 5 4 3 4 5 9 12 12 12 12 10 8 6 7
nan nan nan nan nan nan nan nan nan nan nan nan nan nan nan nan nan 3 4 5 7 8 9 10 13 17 16 14 9 8 9 11
nan nan nan nan nan nan nan nan nan nan nan nan nan nan nan nan nan 1 4 6 7 8 9 12 14 15 15 11 9 10 11 12
nan nan nan nan nan nan nan nan nan nan nan nan nan nan nan nan 4 7 9 9 8 10 12 13 15 15 15 11 10 13 14 nan
nan nan nan nan nan nan nan nan nan nan nan nan nan nan nan nan 2 4 9 10 6 10 10 11 11 14 15 12 14 14 nan nan
nan nan nan nan nan nan nan nan nan nan nan nan nan nan nan 6 3 10 11 12 8 10 7 9 11 12 13 13 12 nan nan nan
nan nan nan nan nan nan nan nan nan nan nan nan nan nan nan 5 7 12 14 13 9 7 5 7 11 14 14 12 nan nan nan nan
nan nan nan nan nan nan nan nan nan nan nan nan nan nan nan 2 7 14 15 7 7 7 9 7 9 12 15 nan nan nan nan nan
nan nan nan nan nan nan nan nan nan nan 18 nan nan nan nan 5 6 12 11 6 9 11 10 8 9 12 13 16 18 nan nan nan
nan nan nan nan nan nan nan nan nan nan nan nan nan nan nan 8 12 8 4 4 8 9 8 10 12 13 13 14 17 nan nan nan
nan 57 49 nan nan nan nan nan nan nan nan nan nan nan nan 15 16 8 5 6 6 8 12 13 14 15 15 14 nan nan nan nan
66 66 57 41 nan nan nan nan nan nan nan 48 43 nan 24 26 20 14 9 11 8 11 16 16 15 15 16 nan nan nan nan nan
Wind_Direction
233 nan 318 339 nan nan nan nan nan nan nan nan nan nan nan 109 84 70 60 63 57 54 57 62 64 59 60 60 67 67 66 64
221 nan nan nan nan nan nan nan nan nan nan nan nan nan nan nan 78 76 79 68 68 62 62 69 68 67 60 53 51 52 55 57
nan nan nan nan nan nan nan nan nan nan nan nan nan nan nan nan 87 77 80 72 74 63 69 74 76 71 67 58 54 51 49 51
nan 264 nan nan nan nan nan nan nan nan nan nan nan nan nan nan 78 74 75 78 81 82 75 78 68 64 53 45 46 46 55 70
nan 218 nan nan nan nan nan nan nan nan nan nan nan nan nan nan 76 79 82 93 92 97 78 63 57 45 34 31 31 15 35 8
nan nan nan nan nan nan nan nan nan nan nan nan nan nan nan nan 70 63 78 76 97 74 56 52 30 8 12 11 344 343 329 325
nan nan nan 277 264 nan nan nan nan nan nan nan nan nan nan nan 68 66 88 85 77 98 197 269 278 301 319 328 320 320 314 1
nan nan nan 276 300 nan nan nan nan nan nan nan nan nan nan nan 50 67 56 33 9 286 308 304 311 312 316 313 317 321 321 344
nan nan nan nan nan nan nan nan nan nan nan nan nan nan nan nan nan 39 19 343 325 320 330 320 319 319 321 317 323 320 330 343
nan nan nan nan nan nan nan nan nan nan nan nan nan nan nan nan nan 1 322 322 309 320 302 315 303 305 306 307 313 319 326 335
nan nan nan nan nan nan nan nan nan nan nan nan nan nan nan nan 332 352 347 317 336 312 312 305 304 308 299 299 311 321 333 nan
nan nan nan nan nan nan nan nan nan nan nan nan nan nan nan nan 230 255 261 275 294 290 296 304 312 309 303 315 322 336 nan nan
nan nan nan nan nan nan nan nan nan nan nan nan nan nan nan 217 271 292 291 278 275 276 326 319 310 304 305 315 334 nan nan nan
nan nan nan nan nan nan nan nan nan nan nan nan nan nan nan 290 278 291 275 248 257 265 291 300 305 298 307 318 nan nan nan nan
nan nan nan nan nan nan nan nan nan nan nan nan nan nan nan 204 274 292 277 259 256 280 273 270 290 301 308 nan nan nan nan nan
nan nan nan nan nan nan nan nan nan nan 180 nan nan nan nan 188 217 245 242 253 259 270 267 272 281 292 300 316 318 nan nan nan
nan nan nan nan nan nan nan nan nan nan nan nan nan nan nan 227 205 230 254 243 268 279 287 291 284 286 303 315 317 nan nan nan
nan 209 216 nan nan nan nan nan nan nan nan nan nan nan nan 229 219 197 212 247 279 289 296 297 295 295 303 310 nan nan nan nan
206 194 184 165 nan nan nan nan nan nan nan 204 195 nan 214 198 196 191 223 277 286 306 289 297 305 306 309 nan nan nan nan nan